Location: Laterina
(43.5167°N, 11.7167°E)
Time: 16:02:09
(UTC+00:00)

Cosmos 1626 - Pass Details

Date: 24 September 2020
Orbit: 490 x 495 km, 82.5° (Epoch: 25 October)

Event Time Altitude Azimuth Distance (km) Brightness Sun altitude
Rises 18:02:13 0° 10° (N) 2,583 5.8 -10.9°
Reaches altitude 10° 18:05:12 10° 37° (NE) 1,693 4.6 -11.5°
Enters shadow 18:07:06 14° 68° (ENE) 1,453 4.0 -11.8°
